User: anonymous   Login
Location: Granada
(37.1830°N, 3.6000°W)
Time: 07:18:18
(UTC+02:00)
Language:

Iridium 70 - Orbit

View from above orbital plane
View from above orbital plane
View from above satellite
View from above satellite

Ground track
Ground track

The orbit data is extracted from the following two-line orbital elements,

1 25342U 98032A   17230.03047698 -.00000017  00000-0 -13054-4 0  9995
2 25342  86.3990 198.4064 0002185  86.4822 316.3158 14.34213587  7968
Epoch (UTC): 18 August 2017 00:43:53
Eccentricity: 0.0002185
inclination: 86.3990°
perigee height: 776 km
apogee height: 779 km
right ascension of ascending node: 198.4064°
argument of perigee: 86.4822°
revolutions per day: 14.34213587
mean anomaly at epoch: 316.3158°
orbit number at epoch: 796

The dashed part of the orbit path shows where the satellite is in the earth's shadow,  

DLR